Location: ????????
(55.6189°N, 38.3031°E)
Time: 06:57:42
(UTC+00:00)

SMAP - Pass Details

Date: 15 November 2019
Orbit: 682 x 683 km, 98.1° (Epoch: 09 December)

Event Time Altitude Azimuth Distance (km) Brightness Sun altitude
Rises 03:47:59 0° 17° (NNE) 3,061 6.4 -10.1°
Reaches altitude 10° 03:50:16 10° 20° (NNE) 2,140 5.7 -9.8°
Maximum altitude 03:54:55 64° 102° (ESE) 760 3.6 -9.2°
Drops below altitude 10° 03:59:32 10° 185° (S) 2,124 5.8 -8.5°
Sets 04:01:47 0° 188° (S) 3,034 6.6 -8.2°
